Time,TemperatureF,DewpointF,PressureIn,WindDirection,WindDirectionDegrees,WindSpeedMPH,WindSpeedGustMPH,Humidity,HourlyPrecipIn,Conditions,Clouds,dailyrainin,SolarRadiationWatts/m^2,SoftwareType,DateUTC
2013-07-18 00:02:00,78.9,75.4,30.11,SW,215,0.0,4.0,89,0.00,,,0.00,0,Wunderground v.1.15,2013-07-18 05:02:00,
2013-07-18 00:08:00,78.9,75.4,30.11,SW,215,0.0,4.0,89,0.00,,,0.00,0,Wunderground v.1.15,2013-07-18 05:08:00,
2013-07-18 00:14:00,78.9,75.4,30.11,SW,215,0.0,4.0,89,0.00,,,0.00,0,Wunderground v.1.15,2013-07-18 05:14:00,
2013-07-18 00:19:00,78.8,75.3,30.11,SW,215,0.0,4.0,89,0.00,,,0.00,0,Wunderground v.1.15,2013-07-18 05:19:00,
2013-07-18 00:26:00,78.5,75.0,30.11,SW,215,0.0,4.0,89,0.00,,,0.00,0,Wunderground v.1.15,2013-07-18 05:26:00,
2013-07-18 00:31:00,78.3,75.1,30.11,SW,215,0.0,4.0,90,0.00,,,0.00,0,Wunderground v.1.15,2013-07-18 05:31:00,
2013-07-18 00:38:00,78.1,74.9,30.11,SW,215,0.0,4.0,90,0.00,,,0.00,0,Wunderground v.1.15,2013-07-18 05:38:00,
2013-07-18 00:44:00,77.9,74.7,30.11,SW,215,0.0,4.0,90,0.00,,,0.00,0,Wunderground v.1.15,2013-07-18 05:44:00,
2013-07-18 00:49:00,77.9,74.7,30.11,SW,215,0.0,4.0,90,0.00,,,0.00,0,Wunderground v.1.15,2013-07-18 05:49:00,
2013-07-18 00:56:00,77.9,74.7,30.11,SW,215,0.0,4.0,90,0.00,,,0.00,0,Wunderground v.1.15,2013-07-18 05:56:00,
2013-07-18 01:01:00,78.0,74.8,30.11,SW,215,0.0,4.0,90,0.00,,,0.00,0,Wunderground v.1.15,2013-07-18 06:01:00,
2013-07-18 01:08:00,77.9,74.7,30.10,SW,215,0.0,4.0,90,0.00,,,0.00,0,Wunderground v.1.15,2013-07-18 06:08:00,
2013-07-18 01:14:00,77.8,74.6,30.10,SW,215,0.0,4.0,90,0.00,,,0.00,0,Wunderground v.1.15,2013-07-18 06:14:00,
2013-07-18 01:20:00,77.7,74.5,30.11,SW,215,0.0,4.0,90,0.00,,,0.00,0,Wunderground v.1.15,2013-07-18 06:20:00,
2013-07-18 01:26:00,77.6,74.4,30.10,SW,215,0.0,4.0,90,0.00,,,0.00,0,Wunderground v.1.15,2013-07-18 06:26:00,
2013-07-18 01:31:00,77.6,74.4,30.10,SW,215,0.0,4.0,90,0.00,,,0.00,0,Wunderground v.1.15,2013-07-18 06:31:00,
2013-07-18 01:38:00,77.6,74.4,30.10,SW,215,0.0,4.0,90,0.00,,,0.00,0,Wunderground v.1.15,2013-07-18 06:38:00,
2013-07-18 01:44:00,77.5,74.3,30.10,SW,215,0.0,4.0,90,0.00,,,0.00,0,Wunderground v.1.15,2013-07-18 06:44:00,
2013-07-18 01:50:00,77.3,74.1,30.10,SW,215,0.0,4.0,90,0.00,,,0.00,0,Wunderground v.1.15,2013-07-18 06:50:00,
2013-07-18 01:56:00,77.1,74.3,30.09,SW,215,0.0,4.0,91,0.00,,,0.00,0,Wunderground v.1.15,2013-07-18 06:56:00,
2013-07-18 02:01:00,77.0,74.2,30.09,SW,215,0.0,4.0,91,0.00,,,0.00,0,Wunderground v.1.15,2013-07-18 07:01:00,
2013-07-18 02:08:00,76.8,74.0,30.09,SW,215,0.0,4.0,91,0.00,,,0.00,0,Wunderground v.1.15,2013-07-18 07:08:00,
2013-07-18 02:14:00,76.8,74.0,30.09,SW,215,0.0,4.0,91,0.00,,,0.00,0,Wunderground v.1.15,2013-07-18 07:14:00,
2013-07-18 02:20:00,76.8,74.0,30.09,SW,215,0.0,4.0,91,0.00,,,0.00,0,Wunderground v.1.15,2013-07-18 07:20:00,
2013-07-18 02:26:00,76.7,73.9,30.09,SW,215,0.0,4.0,91,0.00,,,0.00,0,Wunderground v.1.15,2013-07-18 07:26:00,
2013-07-18 02:32:00,76.7,73.9,30.09,SW,215,0.0,4.0,91,0.00,,,0.00,0,Wunderground v.1.15,2013-07-18 07:32:00,
2013-07-18 02:38:00,76.6,74.1,30.10,SW,215,0.0,4.0,92,0.00,,,0.00,0,Wunderground v.1.15,2013-07-18 07:38:00,
2013-07-18 02:44:00,76.5,74.0,30.09,SW,215,0.0,4.0,92,0.00,,,0.00,0,Wunderground v.1.15,2013-07-18 07:44:00,
2013-07-18 02:50:00,76.4,73.9,30.09,SW,215,0.0,4.0,92,0.00,,,0.00,0,Wunderground v.1.15,2013-07-18 07:50:00,
2013-07-18 02:56:00,76.3,73.8,30.09,SW,215,0.0,4.0,92,0.00,,,0.00,0,Wunderground v.1.15,2013-07-18 07:56:00,
2013-07-18 03:01:00,76.3,74.1,30.09,SW,215,0.0,4.0,93,0.00,,,0.00,0,Wunderground v.1.15,2013-07-18 08:01:00,
2013-07-18 03:08:00,76.3,73.8,30.09,SW,215,0.0,4.0,92,0.00,,,0.00,0,Wunderground v.1.15,2013-07-18 08:08:00,
2013-07-18 03:14:00,76.3,73.8,30.09,SW,215,0.0,4.0,92,0.00,,,0.00,0,Wunderground v.1.15,2013-07-18 08:14:00,
2013-07-18 03:20:00,76.3,73.8,30.09,SW,215,0.0,4.0,92,0.00,,,0.00,0,Wunderground v.1.15,2013-07-18 08:20:00,
2013-07-18 03:22:00,76.3,73.8,30.09,SW,215,0.0,4.0,92,0.00,,,0.00,0,Wunderground v.1.15,2013-07-18 08:22:00,
2013-07-18 03:28:00,76.2,73.7,30.09,SW,215,0.0,4.0,92,0.00,,,0.00,0,Wunderground v.1.15,2013-07-18 08:28:00,
2013-07-18 03:33:00,76.2,73.7,30.09,SW,215,0.0,4.0,92,0.00,,,0.00,0,Wunderground v.1.15,2013-07-18 08:33:00,
2013-07-18 03:40:00,76.2,73.7,30.09,SW,215,0.0,4.0,92,0.00,,,0.00,0,Wunderground v.1.15,2013-07-18 08:40:00,
2013-07-18 03:45:00,76.0,73.5,30.09,SW,215,0.0,4.0,92,0.00,,,0.00,0,Wunderground v.1.15,2013-07-18 08:45:00,
2013-07-18 03:52:00,75.8,73.6,30.09,SW,215,0.0,4.0,93,0.00,,,0.00,0,Wunderground v.1.15,2013-07-18 08:52:00,
2013-07-18 03:58:00,75.6,73.4,30.08,SW,215,0.0,4.0,93,0.00,,,0.00,0,Wunderground v.1.15,2013-07-18 08:58:00,
2013-07-18 04:04:00,75.5,73.7,30.08,SW,215,0.0,4.0,94,0.00,,,0.00,0,Wunderground v.1.15,2013-07-18 09:04:00,
2013-07-18 04:10:00,75.5,73.7,30.08,SW,215,0.0,4.0,94,0.00,,,0.00,0,Wunderground v.1.15,2013-07-18 09:10:00,
2013-07-18 04:15:00,75.5,73.7,30.08,SW,215,0.0,4.0,94,0.00,,,0.00,0,Wunderground v.1.15,2013-07-18 09:15:00,
2013-07-18 04:22:00,75.5,73.3,30.08,SW,215,0.0,4.0,93,0.00,,,0.00,0,Wunderground v.1.15,2013-07-18 09:22:00,
2013-07-18 04:28:00,75.5,73.3,30.08,SW,215,0.0,4.0,93,0.00,,,0.00,0,Wunderground v.1.15,2013-07-18 09:28:00,
2013-07-18 04:34:00,75.5,73.3,30.08,SW,215,0.0,4.0,93,0.00,,,0.00,0,Wunderground v.1.15,2013-07-18 09:34:00,
2013-07-18 04:40:00,75.5,73.3,30.08,SW,215,0.0,4.0,93,0.00,,,0.00,0,Wunderground v.1.15,2013-07-18 09:40:00,
2013-07-18 04:45:00,75.6,73.4,30.08,SW,215,0.0,4.0,93,0.00,,,0.00,0,Wunderground v.1.15,2013-07-18 09:45:00,
2013-07-18 04:52:00,75.7,73.5,30.08,SW,215,0.0,4.0,93,0.00,,,0.00,0,Wunderground v.1.15,2013-07-18 09:52:00,
2013-07-18 04:57:00,75.7,73.5,30.07,SW,215,0.0,4.0,93,0.00,,,0.00,0,Wunderground v.1.15,2013-07-18 09:57:00,
2013-07-18 05:04:00,75.7,73.5,30.08,SW,215,0.0,4.0,93,0.00,,,0.00,0,Wunderground v.1.15,2013-07-18 10:04:00,
2013-07-18 05:10:00,75.6,73.4,30.08,SW,215,0.0,4.0,93,0.00,,,0.00,0,Wunderground v.1.15,2013-07-18 10:10:00,
2013-07-18 05:15:00,75.5,73.3,30.08,SW,215,0.0,4.0,93,0.00,,,0.00,0,Wunderground v.1.15,2013-07-18 10:15:00,
2013-07-18 05:22:00,75.5,73.3,30.08,SW,215,0.0,4.0,93,0.00,,,0.00,0,Wunderground v.1.15,2013-07-18 10:22:00,
2013-07-18 05:27:00,75.4,73.2,30.08,SW,215,0.0,4.0,93,0.00,,,0.00,0,Wunderground v.1.15,2013-07-18 10:27:00,
2013-07-18 05:34:00,75.3,73.1,30.07,SW,215,0.0,4.0,93,0.00,,,0.00,0,Wunderground v.1.15,2013-07-18 10:34:00,
2013-07-18 05:40:00,75.3,73.1,30.07,SW,215,0.0,4.0,93,0.00,,,0.00,0,Wunderground v.1.15,2013-07-18 10:40:00,
2013-07-18 05:46:00,75.2,73.0,30.08,SW,215,0.0,4.0,93,0.00,,,0.00,5,Wunderground v.1.15,2013-07-18 10:46:00,
2013-07-18 05:52:00,75.2,73.4,30.08,SW,223,0.0,4.0,94,0.00,,,0.00,9,Wunderground v.1.15,2013-07-18 10:52:00,
2013-07-18 05:58:00,75.2,73.4,30.07,SW,223,0.0,4.0,94,0.00,,,0.00,12,Wunderground v.1.15,2013-07-18 10:58:00,
2013-07-18 06:04:00,75.1,73.3,30.07,SW,223,0.0,4.0,94,0.00,,,0.00,18,Wunderground v.1.15,2013-07-18 11:04:00,
2013-07-18 06:10:00,75.2,73.4,30.08,SW,223,0.0,4.0,94,0.00,,,0.00,23,Wunderground v.1.15,2013-07-18 11:10:00,
2013-07-18 06:16:00,75.2,73.4,30.07,SW,223,0.0,4.0,94,0.00,,,0.00,32,Wunderground v.1.15,2013-07-18 11:16:00,
2013-07-18 06:22:00,75.4,73.6,30.07,SW,223,0.0,4.0,94,0.00,,,0.00,40,Wunderground v.1.15,2013-07-18 11:22:00,
2013-07-18 06:28:00,75.5,73.7,30.07,SW,223,0.0,4.0,94,0.00,,,0.00,51,Wunderground v.1.15,2013-07-18 11:28:00,
2013-07-18 06:34:00,75.7,73.8,30.07,SW,223,0.0,4.0,94,0.00,,,0.00,62,Wunderground v.1.15,2013-07-18 11:34:00,
2013-07-18 06:40:00,75.9,74.0,30.07,SW,223,0.0,4.0,94,0.00,,,0.00,70,Wunderground v.1.15,2013-07-18 11:40:00,
2013-07-18 06:45:00,76.2,74.3,30.07,SW,223,0.0,4.0,94,0.00,,,0.00,70,Wunderground v.1.15,2013-07-18 11:45:00,
2013-07-18 06:52:00,76.5,74.3,30.07,SW,223,0.0,4.0,93,0.00,,,0.00,67,Wunderground v.1.15,2013-07-18 11:52:00,
2013-07-18 06:58:00,76.8,74.6,30.07,SW,223,0.0,4.0,93,0.00,,,0.00,56,Wunderground v.1.15,2013-07-18 11:58:00,
2013-07-18 07:04:00,77.2,74.7,30.07,SW,223,0.0,4.0,92,0.00,,,0.00,49,Wunderground v.1.15,2013-07-18 12:04:00,
2013-07-18 07:10:00,77.5,74.7,30.07,SW,223,0.0,4.0,91,0.00,,,0.00,47,Wunderground v.1.15,2013-07-18 12:10:00,
2013-07-18 07:15:00,77.9,75.1,30.07,SW,223,0.0,4.0,91,0.00,,,0.00,49,Wunderground v.1.15,2013-07-18 12:15:00,
2013-07-18 07:22:00,78.4,75.2,30.07,SW,223,0.0,4.0,90,0.00,,,0.00,51,Wunderground v.1.15,2013-07-18 12:22:00,
2013-07-18 07:27:00,78.7,75.5,30.07,SW,223,0.0,4.0,90,0.00,,,0.00,53,Wunderground v.1.15,2013-07-18 12:27:00,
2013-07-18 07:34:00,79.0,75.5,30.07,SW,223,0.0,4.0,89,0.00,,,0.00,54,Wunderground v.1.15,2013-07-18 12:34:00,
2013-07-18 07:40:00,79.3,75.8,30.07,SW,223,0.0,4.0,89,0.00,,,0.00,56,Wunderground v.1.15,2013-07-18 12:40:00,
2013-07-18 07:46:00,79.6,75.7,30.07,SW,223,0.0,4.0,88,0.00,,,0.00,56,Wunderground v.1.15,2013-07-18 12:46:00,
2013-07-18 07:52:00,80.0,75.8,30.07,SW,234,0.0,4.0,87,0.00,,,0.00,56,Wunderground v.1.15,2013-07-18 12:52:00,
2013-07-18 07:57:00,80.2,76.0,30.07,SW,232,0.0,4.0,87,0.00,,,0.00,56,Wunderground v.1.15,2013-07-18 12:57:00,
2013-07-18 08:04:00,80.5,75.9,30.07,WSW,237,0.0,4.0,86,0.00,,,0.00,58,Wunderground v.1.15,2013-07-18 13:04:00,
2013-07-18 08:10:00,80.9,76.3,30.07,SW,233,0.0,4.0,86,0.00,,,0.00,58,Wunderground v.1.15,2013-07-18 13:10:00,
2013-07-18 08:16:00,81.2,75.9,30.07,West,269,1.0,4.0,84,0.00,,,0.00,58,Wunderground v.1.15,2013-07-18 13:16:00,
2013-07-18 08:22:00,81.4,76.1,30.07,SW,236,3.0,4.0,84,0.00,,,0.00,60,Wunderground v.1.15,2013-07-18 13:22:00,
2013-07-18 08:27:00,81.6,75.9,30.07,West,269,3.0,5.0,83,0.00,,,0.00,60,Wunderground v.1.15,2013-07-18 13:27:00,
2013-07-18 08:34:00,81.8,75.8,30.07,WSW,238,3.0,4.0,82,0.00,,,0.00,60,Wunderground v.1.15,2013-07-18 13:34:00,
2013-07-18 08:40:00,82.1,76.1,30.07,WSW,247,2.0,2.0,82,0.00,,,0.00,60,Wunderground v.1.15,2013-07-18 13:40:00,
2013-07-18 08:46:00,82.4,76.0,30.06,SW,236,2.0,4.0,81,0.00,,,0.00,62,Wunderground v.1.15,2013-07-18 13:46:00,
2013-07-18 08:52:00,82.6,76.2,30.07,West,261,2.0,4.0,81,0.00,,,0.00,63,Wunderground v.1.15,2013-07-18 13:52:00,
2013-07-18 08:57:00,83.0,76.2,30.06,SW,226,1.0,4.0,80,0.00,,,0.00,63,Wunderground v.1.15,2013-07-18 13:57:00,
2013-07-18 09:04:00,83.4,76.2,30.07,SW,232,2.0,4.0,79,0.00,,,0.00,65,Wunderground v.1.15,2013-07-18 14:04:00,
2013-07-18 09:09:00,83.6,76.0,30.06,SW,227,2.0,2.0,78,0.00,,,0.00,67,Wunderground v.1.15,2013-07-18 14:09:00,
2013-07-18 09:16:00,84.0,76.4,30.06,West,264,1.0,4.0,78,0.00,,,0.00,69,Wunderground v.1.15,2013-07-18 14:16:00,
2013-07-18 09:22:00,84.2,77.0,30.06,West,264,3.0,4.0,79,0.00,,,0.00,81,Wunderground v.1.15,2013-07-18 14:22:00,
2013-07-18 09:28:00,84.6,77.0,30.06,West,263,2.0,4.0,78,0.00,,,0.00,192,Wunderground v.1.15,2013-07-18 14:28:00,
2013-07-18 09:34:00,85.0,77.0,30.06,SW,217,0.0,4.0,77,0.00,,,0.00,403,Wunderground v.1.15,2013-07-18 14:34:00,
2013-07-18 09:40:00,85.3,76.1,30.06,WSW,239,1.0,4.0,74,0.00,,,0.00,573,Wunderground v.1.15,2013-07-18 14:40:00,
2013-07-18 09:46:00,85.4,76.6,30.06,West,265,3.0,4.0,75,0.00,,,0.00,615,Wunderground v.1.15,2013-07-18 14:46:00,
2013-07-18 09:52:00,85.4,76.2,30.06,West,269,3.0,4.0,74,0.00,,,0.00,633,Wunderground v.1.15,2013-07-18 14:52:00,
2013-07-18 09:58:00,85.7,76.9,30.06,WSW,255,2.0,4.0,75,0.00,,,0.00,647,Wunderground v.1.15,2013-07-18 14:58:00,
2013-07-18 10:04:00,85.9,76.6,30.06,WSW,258,2.0,4.0,74,0.00,,,0.00,663,Wunderground v.1.15,2013-07-18 15:04:00,
2013-07-18 10:10:00,86.2,76.5,30.06,WSW,238,2.0,4.0,73,0.00,,,0.00,677,Wunderground v.1.15,2013-07-18 15:10:00,
2013-07-18 10:16:00,86.3,76.6,30.06,West,265,3.0,4.0,73,0.00,,,0.00,693,Wunderground v.1.15,2013-07-18 15:16:00,
2013-07-18 10:22:00,86.4,76.3,30.05,West,263,3.0,4.0,72,0.00,,,0.00,708,Wunderground v.1.15,2013-07-18 15:22:00,
2013-07-18 10:28:00,86.5,75.5,30.06,WSW,257,4.0,6.0,70,0.00,,,0.00,719,Wunderground v.1.15,2013-07-18 15:28:00,
2013-07-18 10:34:00,86.6,76.1,30.05,WSW,240,4.0,4.0,71,0.00,,,0.00,738,Wunderground v.1.15,2013-07-18 15:34:00,
2013-07-18 10:40:00,86.9,76.4,30.05,WSW,245,2.0,4.0,71,0.00,,,0.00,745,Wunderground v.1.15,2013-07-18 15:40:00,
2013-07-18 10:46:00,87.2,75.8,30.05,WSW,254,2.0,4.0,69,0.00,,,0.00,759,Wunderground v.1.15,2013-07-18 15:46:00,
2013-07-18 10:52:00,87.1,76.1,30.05,WNW,283,3.0,6.0,70,0.00,,,0.00,768,Wunderground v.1.15,2013-07-18 15:52:00,
2013-07-18 10:58:00,87.3,76.7,30.04,SW,220,3.0,6.0,71,0.00,,,0.00,782,Wunderground v.1.15,2013-07-18 15:58:00,
2013-07-18 11:04:00,87.6,77.0,30.04,WSW,257,2.0,4.0,71,0.00,,,0.00,793,Wunderground v.1.15,2013-07-18 16:04:00,
2013-07-18 11:10:00,88.1,77.1,30.04,WSW,243,1.0,1.0,70,0.00,,,0.00,791,Wunderground v.1.15,2013-07-18 16:10:00,
2013-07-18 11:16:00,88.1,76.2,30.05,SW,233,2.0,6.0,68,0.00,,,0.00,823,Wunderground v.1.15,2013-07-18 16:16:00,
2013-07-18 11:21:00,88.1,75.8,30.04,SSW,204,2.0,4.0,67,0.00,,,0.00,824,Wunderground v.1.15,2013-07-18 16:21:00,
2013-07-18 11:28:00,88.1,75.8,30.04,SW,235,3.0,4.0,67,0.00,,,0.00,837,Wunderground v.1.15,2013-07-18 16:28:00,
2013-07-18 11:34:00,88.4,75.6,30.04,WSW,251,2.0,4.0,66,0.00,,,0.00,849,Wunderground v.1.15,2013-07-18 16:34:00,
2013-07-18 11:40:00,88.4,76.0,30.04,West,273,2.0,2.0,67,0.00,,,0.00,863,Wunderground v.1.15,2013-07-18 16:40:00,
2013-07-18 11:46:00,88.5,76.1,30.03,SE,127,2.0,4.0,67,0.00,,,0.00,877,Wunderground v.1.15,2013-07-18 16:46:00,
2013-07-18 11:51:00,88.8,76.4,30.03,WSW,258,2.0,4.0,67,0.00,,,0.00,882,Wunderground v.1.15,2013-07-18 16:51:00,
2013-07-18 11:58:00,89.0,76.6,30.03,West,259,2.0,4.0,67,0.00,,,0.00,884,Wunderground v.1.15,2013-07-18 16:58:00,
2013-07-18 12:04:00,89.5,76.2,30.03,West,272,1.0,4.0,65,0.00,,,0.00,919,Wunderground v.1.15,2013-07-18 17:04:00,
2013-07-18 12:10:00,89.5,75.7,30.03,SW,230,2.0,5.0,64,0.00,,,0.00,925,Wunderground v.1.15,2013-07-18 17:10:00,
2013-07-18 12:16:00,89.3,75.0,30.03,West,262,3.0,5.0,63,0.00,,,0.00,951,Wunderground v.1.15,2013-07-18 17:16:00,
2013-07-18 12:21:00,89.4,75.6,30.03,SSW,211,2.0,4.0,64,0.00,,,0.00,1023,Wunderground v.1.15,2013-07-18 17:21:00,
2013-07-18 12:28:00,90.4,76.6,30.03,WSW,237,1.0,4.0,64,0.00,,,0.00,977,Wunderground v.1.15,2013-07-18 17:28:00,
2013-07-18 12:34:00,90.8,76.0,30.03,SW,227,1.0,4.0,62,0.00,,,0.00,1004,Wunderground v.1.15,2013-07-18 17:34:00,
2013-07-18 12:40:00,90.4,75.6,30.03,SW,221,2.0,4.0,62,0.00,,,0.00,1044,Wunderground v.1.15,2013-07-18 17:40:00,
2013-07-18 12:46:00,90.1,76.3,30.03,SW,234,3.0,4.0,64,0.00,,,0.00,1041,Wunderground v.1.15,2013-07-18 17:46:00,
2013-07-18 12:52:00,90.2,76.8,30.02,WNW,289,2.0,3.0,65,0.00,,,0.00,1053,Wunderground v.1.15,2013-07-18 17:52:00,
2013-07-18 12:58:00,90.2,76.4,30.02,SSW,204,1.0,4.0,64,0.00,,,0.00,1067,Wunderground v.1.15,2013-07-18 17:58:00,
2013-07-18 13:04:00,90.1,75.3,30.02,SSW,192,2.0,5.0,62,0.00,,,0.00,1018,Wunderground v.1.15,2013-07-18 18:04:00,
2013-07-18 13:10:00,90.2,76.4,30.02,SSW,192,2.0,4.0,64,0.00,,,0.00,200,Wunderground v.1.15,2013-07-18 18:10:00,
2013-07-18 13:16:00,90.1,76.7,30.01,West,263,2.0,5.0,65,0.00,,,0.00,1000,Wunderground v.1.15,2013-07-18 18:16:00,
2013-07-18 13:22:00,90.0,74.7,30.01,West,261,3.0,6.0,61,0.00,,,0.00,153,Wunderground v.1.15,2013-07-18 18:22:00,
2013-07-18 13:27:00,89.5,75.7,30.01,West,267,3.0,6.0,64,0.00,,,0.00,995,Wunderground v.1.15,2013-07-18 18:27:00,
2013-07-18 13:34:00,89.9,75.6,30.01,ESE,107,2.0,4.0,63,0.00,,,0.00,962,Wunderground v.1.15,2013-07-18 18:34:00,
2013-07-18 13:40:00,90.8,75.5,30.01,SSW,194,1.0,1.0,61,0.00,,,0.00,970,Wunderground v.1.15,2013-07-18 18:40:00,
2013-07-18 13:46:00,91.6,76.7,30.01,SSW,213,1.0,4.0,62,0.00,,,0.00,1016,Wunderground v.1.15,2013-07-18 18:46:00,
2013-07-18 13:52:00,92.5,76.1,30.00,South,169,1.0,4.0,59,0.00,,,0.00,1004,Wunderground v.1.15,2013-07-18 18:52:00,
2013-07-18 13:58:00,92.6,76.7,30.00,West,279,1.0,4.0,60,0.00,,,0.00,169,Wunderground v.1.15,2013-07-18 18:58:00,
2013-07-18 14:04:00,91.6,76.2,30.00,SW,227,1.0,4.0,61,0.00,,,0.00,192,Wunderground v.1.15,2013-07-18 19:04:00,
2013-07-18 14:10:00,91.0,76.2,29.99,SW,230,0.0,4.0,62,0.00,,,0.00,932,Wunderground v.1.15,2013-07-18 19:10:00,
2013-07-18 14:16:00,91.3,77.9,29.99,SW,217,1.0,4.0,65,0.00,,,0.00,916,Wunderground v.1.15,2013-07-18 19:16:00,
2013-07-18 14:22:00,92.1,76.7,29.99,SW,228,1.0,4.0,61,0.00,,,0.00,933,Wunderground v.1.15,2013-07-18 19:22:00,
2013-07-18 14:28:00,91.7,75.8,29.98,WSW,257,2.0,4.0,60,0.00,,,0.00,902,Wunderground v.1.15,2013-07-18 19:28:00,
2013-07-18 14:34:00,91.7,76.8,29.98,SW,236,2.0,4.0,62,0.00,,,0.00,308,Wunderground v.1.15,2013-07-18 19:34:00,
2013-07-18 14:40:00,91.7,75.3,29.98,SSW,202,2.0,2.0,59,0.00,,,0.00,896,Wunderground v.1.15,2013-07-18 19:40:00,
2013-07-18 14:46:00,91.8,75.4,29.98,SW,230,2.0,4.0,59,0.00,,,0.00,858,Wunderground v.1.15,2013-07-18 19:46:00,
2013-07-18 14:52:00,92.4,76.5,29.97,SSW,200,1.0,2.0,60,0.00,,,0.00,853,Wunderground v.1.15,2013-07-18 19:52:00,
2013-07-18 14:58:00,92.5,75.6,29.97,SW,219,1.0,4.0,58,0.00,,,0.00,844,Wunderground v.1.15,2013-07-18 19:58:00,
2013-07-18 15:04:00,92.4,75.5,29.97,SSE,164,1.0,4.0,58,0.00,,,0.00,840,Wunderground v.1.15,2013-07-18 20:04:00,
2013-07-18 15:10:00,92.7,76.8,29.96,SSW,196,1.0,4.0,60,0.00,,,0.00,807,Wunderground v.1.15,2013-07-18 20:10:00,
2013-07-18 15:16:00,92.8,76.4,29.96,SW,229,1.0,4.0,59,0.00,,,0.00,167,Wunderground v.1.15,2013-07-18 20:16:00,
2013-07-18 15:22:00,92.7,76.8,29.96,SW,236,0.0,9.0,60,0.00,,,0.00,842,Wunderground v.1.15,2013-07-18 20:22:00,
2013-07-18 15:28:00,92.4,76.5,29.96,SW,233,1.0,9.0,60,0.00,,,0.00,816,Wunderground v.1.15,2013-07-18 20:28:00,
2013-07-18 15:34:00,92.2,75.8,29.95,SSW,199,2.0,4.0,59,0.00,,,0.00,791,Wunderground v.1.15,2013-07-18 20:34:00,
2013-07-18 15:40:00,92.2,76.8,29.95,WSW,247,2.0,2.0,61,0.00,,,0.00,784,Wunderground v.1.15,2013-07-18 20:40:00,
2013-07-18 15:46:00,92.6,75.1,29.95,WSW,240,2.0,8.0,57,0.00,,,0.00,824,Wunderground v.1.15,2013-07-18 20:46:00,
2013-07-18 15:52:00,92.2,75.8,29.95,SSW,202,3.0,4.0,59,0.00,,,0.00,759,Wunderground v.1.15,2013-07-18 20:52:00,
2013-07-18 15:58:00,92.7,75.8,29.95,SSW,211,2.0,4.0,58,0.00,,,0.00,151,Wunderground v.1.15,2013-07-18 20:58:00,
2013-07-18 16:04:00,92.1,76.2,29.95,SSW,209,1.0,4.0,60,0.00,,,0.00,687,Wunderground v.1.15,2013-07-18 21:04:00,
2013-07-18 16:10:00,92.1,77.2,29.94,SSW,192,1.0,1.0,62,0.00,,,0.00,707,Wunderground v.1.15,2013-07-18 21:10:00,
2013-07-18 16:16:00,92.3,75.9,29.94,SSW,194,1.0,4.0,59,0.00,,,0.00,680,Wunderground v.1.15,2013-07-18 21:16:00,
2013-07-18 16:22:00,92.2,75.3,29.94,South,182,1.0,4.0,58,0.00,,,0.00,663,Wunderground v.1.15,2013-07-18 21:22:00,
2013-07-18 16:28:00,92.1,75.7,29.94,SSW,200,1.0,4.0,59,0.00,,,0.00,649,Wunderground v.1.15,2013-07-18 21:28:00,
2013-07-18 16:34:00,92.0,75.6,29.93,SSW,213,2.0,4.0,59,0.00,,,0.00,640,Wunderground v.1.15,2013-07-18 21:34:00,
2013-07-18 16:40:00,92.1,76.2,29.93,SSW,202,1.0,1.0,60,0.00,,,0.00,642,Wunderground v.1.15,2013-07-18 21:40:00,
2013-07-18 16:46:00,92.0,76.1,29.93,South,182,1.0,4.0,60,0.00,,,0.00,158,Wunderground v.1.15,2013-07-18 21:46:00,
2013-07-18 16:52:00,92.0,76.1,29.93,SSW,212,0.0,4.0,60,0.00,,,0.00,612,Wunderground v.1.15,2013-07-18 21:52:00,
2013-07-18 16:58:00,92.0,75.6,29.93,SSW,209,2.0,4.0,59,0.00,,,0.00,550,Wunderground v.1.15,2013-07-18 21:58:00,
2013-07-18 17:04:00,91.9,76.5,29.93,SW,225,1.0,4.0,61,0.00,,,0.00,533,Wunderground v.1.15,2013-07-18 22:04:00,
2013-07-18 17:10:00,92.2,77.3,29.92,SW,225,1.0,1.0,62,0.00,,,0.00,515,Wunderground v.1.15,2013-07-18 22:10:00,
2013-07-18 17:16:00,92.4,76.5,29.92,SW,230,0.0,6.0,60,0.00,,,0.00,496,Wunderground v.1.15,2013-07-18 22:16:00,
2013-07-18 17:21:00,92.1,75.7,29.92,SSW,211,1.0,4.0,59,0.00,,,0.00,476,Wunderground v.1.15,2013-07-18 22:21:00,
2013-07-18 17:28:00,91.9,77.0,29.91,SW,235,1.0,4.0,62,0.00,,,0.00,454,Wunderground v.1.15,2013-07-18 22:28:00,
2013-07-18 17:34:00,92.0,77.1,29.91,SSW,204,1.0,4.0,62,0.00,,,0.00,443,Wunderground v.1.15,2013-07-18 22:34:00,
2013-07-18 17:40:00,92.1,76.7,29.91,SW,217,0.0,4.0,61,0.00,,,0.00,429,Wunderground v.1.15,2013-07-18 22:40:00,
2013-07-18 17:45:00,92.0,76.6,29.91,WSW,240,1.0,4.0,61,0.00,,,0.00,411,Wunderground v.1.15,2013-07-18 22:45:00,
2013-07-18 17:52:00,92.3,77.4,29.91,WSW,239,1.0,4.0,62,0.00,,,0.00,392,Wunderground v.1.15,2013-07-18 22:52:00,
2013-07-18 17:58:00,92.2,75.8,29.91,South,182,0.0,4.0,59,0.00,,,0.00,373,Wunderground v.1.15,2013-07-18 22:58:00,
2013-07-18 18:04:00,92.0,76.6,29.91,SSW,200,1.0,4.0,61,0.00,,,0.00,355,Wunderground v.1.15,2013-07-18 23:04:00,
2013-07-18 18:10:00,91.7,75.8,29.91,SSW,192,1.0,1.0,60,0.00,,,0.00,339,Wunderground v.1.15,2013-07-18 23:10:00,
2013-07-18 18:16:00,91.6,76.2,29.91,North,360,1.0,4.0,61,0.00,,,0.00,316,Wunderground v.1.15,2013-07-18 23:16:00,
2013-07-18 18:22:00,91.5,76.6,29.90,SSW,194,0.0,4.0,62,0.00,,,0.00,301,Wunderground v.1.15,2013-07-18 23:22:00,
2013-07-18 18:28:00,91.5,77.1,29.90,SSW,193,0.0,4.0,63,0.00,,,0.00,283,Wunderground v.1.15,2013-07-18 23:28:00,
2013-07-18 18:34:00,91.5,76.6,29.90,SSW,193,0.0,4.0,62,0.00,,,0.00,265,Wunderground v.1.15,2013-07-18 23:34:00,
2013-07-18 18:40:00,91.1,76.7,29.90,SW,219,1.0,1.0,63,0.00,,,0.00,241,Wunderground v.1.15,2013-07-18 23:40:00,
2013-07-18 18:46:00,90.7,76.4,29.90,SSW,213,1.0,4.0,63,0.00,,,0.00,225,Wunderground v.1.15,2013-07-18 23:46:00,
2013-07-18 18:52:00,90.6,76.7,29.90,SW,232,1.0,4.0,64,0.00,,,0.00,204,Wunderground v.1.15,2013-07-18 23:52:00,
2013-07-18 18:58:00,90.4,76.6,29.90,WSW,237,0.0,4.0,64,0.00,,,0.00,183,Wunderground v.1.15,2013-07-18 23:58:00,
2013-07-18 19:04:00,90.4,77.0,29.90,SW,232,0.0,4.0,65,0.00,,,0.00,162,Wunderground v.1.15,2013-07-19 00:04:00,
2013-07-18 19:10:00,90.1,76.7,29.90,SW,220,1.0,1.0,65,0.00,,,0.00,142,Wunderground v.1.15,2013-07-19 00:10:00,
2013-07-18 19:16:00,89.9,76.6,29.90,SSW,203,0.0,4.0,65,0.00,,,0.00,125,Wunderground v.1.15,2013-07-19 00:16:00,
2013-07-18 19:22:00,89.7,76.8,29.90,SSW,205,0.0,4.0,66,0.00,,,0.00,107,Wunderground v.1.15,2013-07-19 00:22:00,
2013-07-18 19:27:00,89.5,77.1,29.90,SSW,203,0.0,4.0,67,0.00,,,0.00,88,Wunderground v.1.15,2013-07-19 00:27:00,
2013-07-18 19:34:00,89.3,76.4,29.90,SSW,203,0.0,4.0,66,0.00,,,0.00,74,Wunderground v.1.15,2013-07-19 00:34:00,
2013-07-18 19:40:00,89.0,77.1,29.90,SSW,203,0.0,4.0,68,0.00,,,0.00,58,Wunderground v.1.15,2013-07-19 00:40:00,
2013-07-18 19:46:00,88.6,76.7,29.90,SSW,203,0.0,4.0,68,0.00,,,0.00,49,Wunderground v.1.15,2013-07-19 00:46:00,
2013-07-18 19:52:00,88.2,77.2,29.90,SSW,203,0.0,4.0,70,0.00,,,0.00,39,Wunderground v.1.15,2013-07-19 00:52:00,
2013-07-18 19:57:00,88.0,77.0,29.90,SSW,203,0.0,4.0,70,0.00,,,0.00,32,Wunderground v.1.15,2013-07-19 00:57:00,
2013-07-18 20:04:00,87.6,76.2,29.90,SSW,203,0.0,4.0,69,0.00,,,0.00,23,Wunderground v.1.15,2013-07-19 01:04:00,
2013-07-18 20:10:00,87.2,76.6,29.90,SSW,203,0.0,4.0,71,0.00,,,0.00,18,Wunderground v.1.15,2013-07-19 01:10:00,
2013-07-18 20:16:00,86.8,76.3,29.90,SSW,203,0.0,4.0,71,0.00,,,0.00,14,Wunderground v.1.15,2013-07-19 01:16:00,
2013-07-18 20:22:00,86.4,76.3,29.90,SSW,203,0.0,4.0,72,0.00,,,0.00,11,Wunderground v.1.15,2013-07-19 01:22:00,
2013-07-18 20:27:00,86.0,75.9,29.90,SSW,203,0.0,4.0,72,0.00,,,0.00,7,Wunderground v.1.15,2013-07-19 01:27:00,
2013-07-18 20:34:00,85.6,75.9,29.89,SSW,203,0.0,4.0,73,0.00,,,0.00,0,Wunderground v.1.15,2013-07-19 01:34:00,
2013-07-18 20:39:00,85.2,75.6,29.89,SSW,210,0.0,4.0,73,0.00,,,0.00,0,Wunderground v.1.15,2013-07-19 01:39:00,
2013-07-18 20:46:00,84.9,76.1,29.89,SSW,210,0.0,4.0,75,0.00,,,0.00,0,Wunderground v.1.15,2013-07-19 01:46:00,
2013-07-18 20:52:00,84.6,75.4,29.90,SSW,210,0.0,4.0,74,0.00,,,0.00,0,Wunderground v.1.15,2013-07-19 01:52:00,
2013-07-18 20:57:00,84.5,75.3,29.90,SSW,209,0.0,4.0,74,0.00,,,0.00,0,Wunderground v.1.15,2013-07-19 01:57:00,
2013-07-18 21:04:00,84.3,75.5,29.89,SSW,209,0.0,4.0,75,0.00,,,0.00,0,Wunderground v.1.15,2013-07-19 02:04:00,
2013-07-18 21:10:00,84.1,75.3,29.89,SSW,209,0.0,4.0,75,0.00,,,0.00,0,Wunderground v.1.15,2013-07-19 02:10:00,
2013-07-18 21:16:00,83.9,75.5,29.89,SW,221,0.0,4.0,76,0.00,,,0.00,0,Wunderground v.1.15,2013-07-19 02:16:00,
2013-07-18 21:22:00,83.7,75.3,29.90,SW,221,0.0,4.0,76,0.00,,,0.00,0,Wunderground v.1.15,2013-07-19 02:22:00,
2013-07-18 21:28:00,83.5,75.1,29.90,SSW,195,0.0,4.0,76,0.00,,,0.00,0,Wunderground v.1.15,2013-07-19 02:28:00,
2013-07-18 21:34:00,83.4,75.0,29.90,SSW,194,0.0,4.0,76,0.00,,,0.00,0,Wunderground v.1.15,2013-07-19 02:34:00,
2013-07-18 21:40:00,83.2,74.8,29.89,SSW,194,0.0,4.0,76,0.00,,,0.00,0,Wunderground v.1.15,2013-07-19 02:40:00,
2013-07-18 21:46:00,83.0,74.6,29.90,SSW,200,0.0,4.0,76,0.00,,,0.00,0,Wunderground v.1.15,2013-07-19 02:46:00,
2013-07-18 21:52:00,82.9,74.6,29.90,SSW,213,0.0,4.0,76,0.00,,,0.00,0,Wunderground v.1.15,2013-07-19 02:52:00,
2013-07-18 21:58:00,82.8,74.8,29.90,SSW,210,0.0,4.0,77,0.00,,,0.00,0,Wunderground v.1.15,2013-07-19 02:58:00,
2013-07-18 22:04:00,82.7,74.8,29.90,SSW,211,0.0,4.0,77,0.00,,,0.00,0,Wunderground v.1.15,2013-07-19 03:04:00,
2013-07-18 22:10:00,82.5,74.6,29.90,SSW,202,0.0,4.0,77,0.00,,,0.00,0,Wunderground v.1.15,2013-07-19 03:10:00,
2013-07-18 22:16:00,82.4,74.5,29.90,SSW,202,0.0,4.0,77,0.00,,,0.00,0,Wunderground v.1.15,2013-07-19 03:16:00,
2013-07-18 22:22:00,82.2,74.3,29.90,SSW,200,0.0,4.0,77,0.00,,,0.00,0,Wunderground v.1.15,2013-07-19 03:22:00,
2013-07-18 22:28:00,82.0,74.1,29.89,SSW,211,0.0,4.0,77,0.00,,,0.00,0,Wunderground v.1.15,2013-07-19 03:28:00,
2013-07-18 22:34:00,81.9,74.4,29.89,SSW,207,0.0,4.0,78,0.00,,,0.00,0,Wunderground v.1.15,2013-07-19 03:34:00,
2013-07-18 22:40:00,81.6,74.1,29.90,SSW,204,0.0,4.0,78,0.00,,,0.00,0,Wunderground v.1.15,2013-07-19 03:40:00,
2013-07-18 22:46:00,81.5,74.4,29.89,SSW,200,0.0,4.0,79,0.00,,,0.00,0,Wunderground v.1.15,2013-07-19 03:46:00,
2013-07-18 22:52:00,81.3,74.2,29.89,SSW,200,0.0,4.0,79,0.00,,,0.00,0,Wunderground v.1.15,2013-07-19 03:52:00,
2013-07-18 22:58:00,81.2,74.1,29.89,SSW,199,0.0,4.0,79,0.00,,,0.00,0,Wunderground v.1.15,2013-07-19 03:58:00,
2013-07-18 23:02:00,81.1,74.3,29.89,SSW,198,0.0,4.0,80,0.00,,,0.00,0,Wunderground v.1.15,2013-07-19 04:02:00,
2013-07-18 23:06:00,81.0,74.2,29.89,South,191,0.0,4.0,80,0.00,,,0.00,0,Wunderground v.1.15,2013-07-19 04:06:00,
2013-07-18 23:08:00,80.9,74.1,29.89,SSW,202,0.0,4.0,80,0.00,,,0.00,0,Wunderground v.1.15,2013-07-19 04:08:00,
2013-07-18 23:12:00,80.8,74.0,29.89,SSW,192,0.0,4.0,80,0.00,,,0.00,0,Wunderground v.1.15,2013-07-19 04:12:00,
2013-07-18 23:18:00,80.7,74.3,29.89,SSW,196,0.0,4.0,81,0.00,,,0.00,0,Wunderground v.1.15,2013-07-19 04:18:00,
2013-07-18 23:20:00,80.7,74.3,29.89,SSW,196,0.0,4.0,81,0.00,,,0.00,0,Wunderground v.1.15,2013-07-19 04:20:00,
2013-07-18 23:26:00,80.5,74.1,29.89,SSW,196,0.0,4.0,81,0.00,,,0.00,0,Wunderground v.1.15,2013-07-19 04:26:00,
2013-07-18 23:32:00,80.3,74.3,29.88,South,187,0.0,4.0,82,0.00,,,0.00,0,Wunderground v.1.15,2013-07-19 04:32:00,
2013-07-18 23:38:00,80.2,74.2,29.88,SW,214,0.0,4.0,82,0.00,,,0.00,0,Wunderground v.1.15,2013-07-19 04:38:00,
2013-07-18 23:44:00,80.1,74.5,29.88,SSW,209,0.0,4.0,83,0.00,,,0.00,0,Wunderground v.1.15,2013-07-19 04:44:00,
2013-07-18 23:50:00,80.0,74.4,29.89,SSW,204,0.0,4.0,83,0.00,,,0.00,0,Wunderground v.1.15,2013-07-19 04:50:00,
2013-07-18 23:56:00,80.0,74.4,29.89,SSW,196,0.0,4.0,83,0.00,,,0.00,0,Wunderground v.1.15,2013-07-19 04:56:00,